Saint Cloud, MN

1:30 PM CST on December 05, 2016 (GMT -0600)
Saint Cloud Regional

Weather History for KSTC - June, 2014

Change the Weather History Date:

Friday, June 27, 2014

  Actual Average Record
Temperature  
Mean Temperature 77 °F 69 °F  
Max Temperature 83 °F 81 °F 99 °F (1934)
Min Temperature 70 °F 57 °F 37 °F (1992)
Degree Days  
Heating Degree Days 0 1  
Month to date heating degree days 26 75  
Since 1 June heating degree days 26 75  
Since 1 July heating degree days 9524 8529  
Cooling Degree Days 12 5  
Month to date cooling degree days 104 80  
Year to date cooling degree days 148 105  
Since 1 June cooling degree days 104 80  
Growing Degree Days 26 (Base 50)    
Moisture  
Dew Point 66 °F    
Average Humidity 71    
Maximum Humidity 84    
Minimum Humidity 58    
Precipitation  
Precipitation 0.02 in 0.14 in 3.35 in (1920)
Month to date precipitation 6.15 3.76  
Year to date precipitation 22.50 12.07  
Snow  
Snow 0.00 in 0.00 in 0.00 in ()
Month to date snowfall 0.0 0.0  
Since 1 June snowfall 0.0 0.0  
Since 1 July snowfall 75.5 45.7  
Snow Depth 0.00 in    
Sea Level Pressure  
Sea Level Pressure 29.80 in    
Wind  
Wind Speed 10 mph (SE)    
Max Wind Speed 23 mph    
Max Gust Speed 29 mph    
Visibility 10 miles    
Events Rain    
T = Trace of Precipitation, MM = Missing Value Source: NWS Daily Summary

Daily Weather History Graph

Daily Weather History Graph

Search for Another Location

Airport or City:

Trip Planner

Search our weather history database for the weather conditions in past years. The results will help you decide how hot, cold, wet, or windy it might be!

Date:

Astronomy

Jun. 27, 2014 Rise Set
Actual Time 5:29 AM CDT 9:09 PM CDT
Civil Twilight 4:51 AM CDT 9:47 PM CDT
Nautical Twilight 4:00 AM CDT 10:37 PM CDT
Astronomical Twilight 2:51 AM CDT 11:46 PM CDT
Moon 6:05 AM CDT (6/27) 9:09 PM CDT (6/27)
Length of Visible Light 16h 55m
Length of Day
15h 40m
New Moon, 0% of the Moon is Illuminated
Jun 27
New Moon
Jul 5
First Quarter
Jul 12
Full
Jul 18
Last Quarter
Jul 26
New

Hourly Weather History & Observations

Time (CDT) Temp. Heat Index Dew Point Humidity Pressure Visibility Wind Dir Wind Speed Gust Speed Precip Events Conditions
12:53 AM 71.1 °F - 66.0 °F 84% 29.89 in 10.0 mi SE 8.1 mph - N/A   Partly Cloudy
1:53 AM 71.1 °F - 64.9 °F 81% 29.87 in 10.0 mi SE 5.8 mph - N/A   Clear
2:53 AM 70.0 °F - 64.9 °F 84% 29.85 in 10.0 mi East 3.5 mph - N/A   Clear
3:37 AM 69.8 °F - 64.4 °F 83% 29.84 in 10.0 mi ESE 4.6 mph - N/A   Mostly Cloudy
3:53 AM 70.0 °F - 64.9 °F 84% 29.84 in 9.0 mi East 4.6 mph - N/A   Scattered Clouds
4:11 AM 71.6 °F - 64.4 °F 78% 29.84 in 10.0 mi ESE 6.9 mph - N/A   Mostly Cloudy
4:23 AM 71.6 °F - 66.2 °F 83% 29.84 in 10.0 mi ESE 5.8 mph - N/A   Overcast
4:34 AM 71.6 °F - 66.2 °F 83% 29.85 in 10.0 mi ESE 6.9 mph - N/A   Overcast
4:53 AM 71.1 °F - 64.9 °F 81% 29.86 in 10.0 mi ESE 6.9 mph - N/A   Overcast
5:53 AM 71.1 °F - 64.9 °F 81% 29.86 in 10.0 mi SE 10.4 mph - N/A   Overcast
6:22 AM 71.6 °F - 64.4 °F 78% 29.83 in 9.0 mi SE 10.4 mph - N/A   Scattered Clouds
6:53 AM 71.1 °F - 64.9 °F 81% 29.83 in 9.0 mi SE 8.1 mph - N/A   Partly Cloudy
7:16 AM 71.6 °F - 66.2 °F 83% 29.82 in 9.0 mi SE 11.5 mph - N/A   Mostly Cloudy
7:53 AM 72.0 °F - 66.0 °F 81% 29.83 in 9.0 mi SE 11.5 mph - N/A   Mostly Cloudy
8:34 AM 73.4 °F - 66.2 °F 78% 29.82 in 10.0 mi SE 11.5 mph 17.3 mph N/A   Scattered Clouds
8:53 AM 73.9 °F - 66.9 °F 79% 29.84 in 10.0 mi SSE 11.5 mph - N/A   Mostly Cloudy
9:10 AM 73.4 °F - 66.2 °F 78% 29.83 in 10.0 mi SSE 11.5 mph - N/A   Mostly Cloudy
9:34 AM 75.2 °F - 66.2 °F 73% 29.83 in 10.0 mi SSE 10.4 mph - N/A   Overcast
9:53 AM 75.0 °F - 66.0 °F 73% 29.84 in 10.0 mi SSE 15.0 mph - N/A   Mostly Cloudy
10:53 AM 75.9 °F - 66.0 °F 71% 29.83 in 10.0 mi SSE 13.8 mph - N/A   Mostly Cloudy
11:53 AM 77.0 °F - 66.9 °F 71% 29.82 in 10.0 mi SSE 12.7 mph - N/A   Overcast
12:21 PM 75.2 °F - 68.0 °F 78% 29.80 in 9.0 mi South 6.9 mph - 0.00 in Rain Light Rain
12:53 PM 78.1 °F - 69.1 °F 74% 29.79 in 10.0 mi ESE 8.1 mph - 0.02 in   Mostly Cloudy
1:43 PM 80.6 °F 82.7 °F 66.2 °F 61% 29.78 in 10.0 mi SE 10.4 mph - N/A   Mostly Cloudy
1:53 PM 81.0 °F 83.8 °F 68.0 °F 65% 29.78 in 10.0 mi ESE 11.5 mph 18.4 mph N/A   Mostly Cloudy
2:53 PM 82.0 °F 84.5 °F 66.9 °F 60% 29.77 in 10.0 mi SE 16.1 mph 21.9 mph N/A   Mostly Cloudy
3:53 PM 82.9 °F 85.4 °F 66.9 °F 58% 29.75 in 10.0 mi SE 13.8 mph 21.9 mph N/A   Partly Cloudy
4:53 PM 77.0 °F - 69.1 °F 76% 29.75 in 10.0 mi SE 9.2 mph 19.6 mph 0.00 in   Overcast
5:53 PM 81.0 °F 83.8 °F 68.0 °F 65% 29.74 in 10.0 mi South 10.4 mph - N/A   Scattered Clouds
6:07 PM 80.6 °F 82.7 °F 66.2 °F 61% 29.73 in 10.0 mi South 12.7 mph - N/A   Mostly Cloudy
6:35 PM 78.8 °F - 66.2 °F 65% 29.73 in 10.0 mi South 12.7 mph 23.0 mph N/A   Mostly Cloudy
6:53 PM 80.1 °F 82.1 °F 66.0 °F 62% 29.74 in 10.0 mi South 15.0 mph 23.0 mph N/A   Mostly Cloudy
7:53 PM 75.9 °F - 66.9 °F 74% 29.74 in 9.0 mi SE 8.1 mph - 0.00 in Rain Light Rain
8:53 PM 75.9 °F - 66.9 °F 74% 29.74 in 10.0 mi SE 6.9 mph - 0.00 in   Mostly Cloudy
9:53 PM 75.9 °F - 66.9 °F 74% 29.74 in 10.0 mi SSE 11.5 mph - N/A   Scattered Clouds
10:53 PM 75.9 °F - 66.9 °F 74% 29.75 in 10.0 mi SSE 9.2 mph - N/A   Scattered Clouds
11:53 PM 75.0 °F - 68.0 °F 79% 29.75 in 10.0 mi SSE 9.2 mph - N/A   Mostly Cloudy